Weather History for KELY - November, 2012

Change the Weather History Date:

Thursday, November 8, 2012

  Actual Average Record
Temperature  
Mean Temperature 49 °F 37 °F  
Max Temperature 62 °F 52 °F 71 °F (1978)
Min Temperature 36 °F 22 °F -2 °F (1945)
Degree Days  
Heating Degree Days 16 28  
Month to date heating degree days 145 213  
Since 1 July heating degree days 817 1141  
Cooling Degree Days 0 0  
Month to date cooling degree days 0 0  
Year to date cooling degree days 314 218  
Moisture  
Dew Point 25 °F    
Average Humidity 41    
Maximum Humidity 59    
Minimum Humidity 22    
Precipitation  
Precipitation T in 0.02 in 0.52 in (2010)
Month to date precipitation T 0.22  
Year to date precipitation 10.05 8.69  
Snow  
Snow 0.00 in 0.20 in 3.50 in (2010)
Month to date snowfall 0.0 1.3  
Since 1 July snowfall 2.5 4.7  
Since 1 September snowfall 2.5 4.7  
Snow Depth 0.00 in    
Sea Level Pressure  
Sea Level Pressure 29.56 in    
Wind  
Wind Speed 20 mph (South)    
Max Wind Speed 37 mph    
Max Gust Speed 48 mph    
Visibility 10 miles    
Events      
T = Trace of Precipitation, MM = Missing Value Source: NWS Daily Summary

Daily Weather History Graph

Daily Weather History Graph

Search for Another Location

Airport or City:

Trip Planner

Search our weather history database for the weather conditions in past years. The results will help you decide how hot, cold, wet, or windy it might be!

Date:

Astronomy

Nov. 08, 2012 Rise Set
Actual Time 6:15 AM PST 4:30 PM PST
Civil Twilight 5:47 AM PST 4:58 PM PST
Nautical Twilight 5:15 AM PST 5:30 PM PST
Astronomical Twilight 4:43 AM PST 6:01 PM PST
Moon 12:17 AM PST (11/8) 1:11 PM PST (11/8)
Length of Visible Light 11h 11m
Length of Day
10h 14m
Waning Crescent, 32% of the Moon is Illuminated
Nov 8
Waning Crescent
Nov 13
New
Nov 20
First Quarter
Nov 28
Full
Dec 6
Last Quarter

Hourly Weather History & Observations

Time (PST) Temp. Windchill Dew Point Humidity Pressure Visibility Wind Dir Wind Speed Gust Speed Precip Events Conditions
12:53 AM 44.1 °F 37.4 °F 25.0 °F 47% 29.72 in 10.0 mi South 13.8 mph - N/A   Clear
1:53 AM 43.0 °F 35.7 °F 24.1 °F 47% 29.71 in 10.0 mi South 15.0 mph - N/A   Clear
2:53 AM 43.0 °F 36.8 °F 23.0 °F 45% 29.69 in 10.0 mi South 11.5 mph - N/A   Clear
3:53 AM 41.0 °F 35.2 °F 23.0 °F 49% 29.70 in 10.0 mi South 9.2 mph - N/A   Clear
4:53 AM 36.0 °F 27.5 °F 23.0 °F 59% 29.76 in 10.0 mi South 12.7 mph - N/A   Clear
5:53 AM 36.0 °F 27.5 °F 23.0 °F 59% 29.76 in 10.0 mi South 12.7 mph - N/A   Clear
6:53 AM 39.9 °F 33.4 °F 25.0 °F 55% 29.74 in 10.0 mi SSE 10.4 mph - N/A   Clear
7:53 AM 51.1 °F - 26.1 °F 38% 29.69 in 10.0 mi South 20.7 mph 26.5 mph N/A   Clear
8:53 AM 55.0 °F - 25.0 °F 31% 29.65 in 10.0 mi SSE 15.0 mph 27.6 mph N/A   Clear
9:53 AM 57.0 °F - 24.1 °F 28% 29.63 in 10.0 mi SSE 18.4 mph 27.6 mph N/A   Clear
10:53 AM 60.1 °F - 23.0 °F 24% 29.59 in 10.0 mi SSE 21.9 mph 27.6 mph N/A   Clear
11:53 AM 60.1 °F - 21.9 °F 23% 29.56 in 10.0 mi South 15.0 mph 26.5 mph N/A   Clear
12:53 PM 61.0 °F - 21.0 °F 21% 29.51 in 10.0 mi South 16.1 mph 25.3 mph N/A   Clear
1:53 PM 59.0 °F - 21.0 °F 23% 29.50 in 10.0 mi South 16.1 mph 29.9 mph N/A   Clear
2:53 PM 57.0 °F - 21.0 °F 25% 29.49 in 10.0 mi South 23.0 mph 35.7 mph N/A   Clear
3:53 PM 55.0 °F - 21.0 °F 27% 29.49 in 10.0 mi South 26.5 mph 34.5 mph N/A   Clear
4:53 PM 52.0 °F - 21.9 °F 31% 29.52 in 10.0 mi South 20.7 mph 32.2 mph N/A   Clear
5:53 PM 52.0 °F - 26.1 °F 37% 29.51 in 10.0 mi South 24.2 mph 34.5 mph N/A   Clear
6:53 PM 52.0 °F - 28.0 °F 40% 29.47 in 10.0 mi South 29.9 mph 42.6 mph N/A   Clear
7:53 PM 52.0 °F - 30.0 °F 43% 29.41 in 10.0 mi South 29.9 mph 40.3 mph N/A   Partly Cloudy
8:53 PM 51.1 °F - 30.9 °F 46% 29.40 in 10.0 mi South 21.9 mph 34.5 mph N/A   Overcast
9:53 PM 51.1 °F - 32.0 °F 48% 29.38 in 10.0 mi South 29.9 mph 36.8 mph N/A   Overcast
10:53 PM 51.1 °F - 30.9 °F 46% 29.35 in 10.0 mi South 27.6 mph 38.0 mph N/A   Overcast
11:53 PM 48.9 °F - 28.9 °F 46% 29.36 in 10.0 mi South 32.2 mph 47.2 mph N/A   Overcast